Location: Haliburton Scout Reserve
(45.0900°N, 78.3200°W)
Time: 15:01:47
(UTC-04:00)

Courier 1B Rocket - Pass Details

Date: 09 February 2023
Orbit: 920 x 1202 km, 28.2° (Epoch: 27 March)

Event Time Altitude Azimuth Distance (km) Brightness Sun altitude
Rises 13:35:58 0° 211° (SSW) 3,799 9.3 28.3°
Reaches altitude 10° 13:41:11 10° 178° (S) 2,768 8.7 28.0°
Maximum altitude 13:42:57 11° 163° (SSE) 2,663 8.2 27.9°
Drops below altitude 10° 13:44:42 10° 147° (SSE) 2,721 7.9 27.8°
Sets 13:49:39 0° 114° (ESE) 3,609 8.0 27.5°
